Cas;Teplota [C];Tlak [hPa];Svetlo [lux];Rychlost vetru [km/h];Smer vetru [stupne]
2019-06-24 00:00:01;17.99;1016.68;14;0;0
2019-06-24 00:00:31;17.96;1016.7;15;0;0
2019-06-24 00:01:01;18;1016.69;14;0;0
2019-06-24 00:01:31;18.03;1016.68;14;0;0
2019-06-24 00:02:01;17.96;1016.71;14;0;0
2019-06-24 00:02:31;17.92;1016.73;15;0;0
2019-06-24 00:03:01;17.93;1016.71;14;0;0
2019-06-24 00:03:31;17.68;1016.72;14;0;0
2019-06-24 00:04:01;17.78;1016.73;15;0;0
2019-06-24 00:04:31;17.86;1016.76;15;0;0
2019-06-24 00:05:01;17.96;1016.74;15;0;0
2019-06-24 00:05:31;17.7;1016.77;15;0;0
2019-06-24 00:06:01;17.82;1016.75;15;0;0
2019-06-24 00:06:31;17.73;1016.77;15;0;0
2019-06-24 00:07:01;17.86;1016.75;15;0;0
2019-06-24 00:07:31;17.96;1016.8;16;0;0
2019-06-24 00:08:01;18.03;1016.8;15;0;0
2019-06-24 00:08:31;18.04;1016.8;14;0;0
2019-06-24 00:09:01;17.92;1016.82;14;0;0
2019-06-24 00:09:31;17.83;1016.82;14;0;0
2019-06-24 00:10:01;17.7;1016.83;15;0;0
2019-06-24 00:10:32;17.85;1016.89;15;0;0
2019-06-24 00:11:01;17.79;1016.89;15;0;0
2019-06-24 00:11:31;17.75;1016.82;15;0;0
2019-06-24 00:12:01;17.67;1016.84;14;0;0
2019-06-24 00:12:31;17.82;1016.82;14;0;0
2019-06-24 00:13:01;17.83;1016.8;15;0;0
2019-06-24 00:13:31;17.69;1016.82;14;0;0
2019-06-24 00:14:01;17.36;1016.79;14;0;0
2019-06-24 00:14:31;17.48;1016.8;15;0;0
2019-06-24 00:15:01;17.51;1016.8;15;0;0
2019-06-24 00:15:31;17.69;1016.82;14;0;0
2019-06-24 00:16:01;17.5;1016.81;14;0;0
2019-06-24 00:16:31;17.53;1016.78;15;0;0
2019-06-24 00:17:01;17.4;1016.77;14;0;0
2019-06-24 00:17:31;17.52;1016.76;14;0;0
2019-06-24 00:18:02;17.38;1016.75;14;0;0
2019-06-24 00:18:32;17.4;1016.76;14;0;0
2019-06-24 00:19:01;17.27;1016.81;14;0;0
2019-06-24 00:19:31;17.24;1016.84;14;0;0
2019-06-24 00:20:02;17.21;1016.79;14;0;0
2019-06-24 00:20:31;17.3;1016.76;14;0;0
2019-06-24 00:21:01;17.32;1016.78;15;0;0
2019-06-24 00:21:31;17.19;1016.77;15;0;0
2019-06-24 00:22:01;17.22;1016.79;14;0;0
2019-06-24 00:22:31;17.32;1016.78;14;0;0
2019-06-24 00:23:01;17.27;1016.75;14;0;0
2019-06-24 00:23:31;17.21;1016.74;15;0;0
2019-06-24 00:24:01;17.21;1016.74;15;0;0
2019-06-24 00:24:31;17.35;1016.82;14;0;0
2019-06-24 00:25:02;17.31;1016.79;15;0;0
2019-06-24 00:25:31;17.16;1016.81;14;0;0
2019-06-24 00:26:01;17.19;1016.78;14;0;0
2019-06-24 00:26:31;17.33;1016.85;14;0;0
2019-06-24 00:27:02;17.4;1016.88;14;0;0
2019-06-24 00:27:31;17.4;1016.83;14;0;0
2019-06-24 00:28:01;17.36;1016.87;14;0;0
2019-06-24 00:28:32;17.28;1016.89;14;0;0
2019-06-24 00:29:01;17.25;1016.87;14;0;0
2019-06-24 00:29:31;17.17;1016.87;14;0;0
2019-06-24 00:30:01;17.3;1016.91;14;0;0
2019-06-24 00:30:31;17.02;1016.93;13;0;0
2019-06-24 00:31:01;17.19;1016.96;14;0;0
2019-06-24 00:31:31;16.98;1016.91;14;0;0
2019-06-24 00:32:01;17.06;1016.95;14;0;0
2019-06-24 00:32:31;17.12;1016.87;14;0;0
2019-06-24 00:33:01;17.1;1016.89;14;0;0
2019-06-24 00:33:31;17.07;1016.93;13;0;0
2019-06-24 00:34:01;17.17;1016.87;13;0;0
2019-06-24 00:34:31;17.26;1016.85;14;0;0
2019-06-24 00:35:01;17.18;1016.87;15;0;0
2019-06-24 00:35:31;17.1;1016.83;14;0;0
2019-06-24 00:36:01;17.13;1016.86;14;0;0
2019-06-24 00:36:31;17.16;1016.88;14;0;0
2019-06-24 00:37:01;17.17;1016.9;14;0;0
2019-06-24 00:37:31;17.2;1016.95;14;0;0
2019-06-24 00:38:02;17.19;1016.96;14;0;0
2019-06-24 00:38:32;17.04;1016.93;14;0;0
2019-06-24 00:39:01;17.08;1016.91;14;0;0
2019-06-24 00:39:31;17.08;1016.94;13;0;0
2019-06-24 00:40:01;16.98;1016.98;14;0;0
2019-06-24 00:40:31;16.99;1016.98;14;0;0
2019-06-24 00:41:01;17.11;1016.95;14;0;0
2019-06-24 00:41:31;16.97;1016.97;14;0;0
2019-06-24 00:42:01;17.16;1017.01;15;0;0
2019-06-24 00:42:31;17.2;1017.06;15;0;0
2019-06-24 00:43:01;17.18;1017.11;15;0;0
2019-06-24 00:43:31;16.96;1017.07;15;0;0
2019-06-24 00:44:01;17.09;1017.11;14;0;0
2019-06-24 00:44:31;16.96;1017.14;14;0;0
2019-06-24 00:45:01;17.01;1017.13;13;0;0
2019-06-24 00:45:31;16.88;1017.17;14;0;0
2019-06-24 00:46:02;16.92;1017.14;13;0;0
2019-06-24 00:46:31;16.84;1017.11;14;0;0
2019-06-24 00:47:01;16.71;1017.07;15;0;0
2019-06-24 00:47:31;16.82;1017.11;15;0;0
2019-06-24 00:48:01;16.82;1017.09;15;0;0
2019-06-24 00:48:32;16.94;1017.17;14;0;0
2019-06-24 00:49:01;16.87;1017.23;14;0;0
2019-06-24 00:49:31;16.85;1017.33;14;0;0
2019-06-24 00:50:01;17.12;1017.36;13;0;0
2019-06-24 00:50:31;16.98;1017.36;14;0;0
2019-06-24 00:51:01;16.93;1017.35;13;0;0
2019-06-24 00:51:31;16.9;1017.31;13;0;0
2019-06-24 00:52:01;16.87;1017.33;14;0;0
2019-06-24 00:52:31;16.98;1017.35;14;0;0
2019-06-24 00:53:01;16.82;1017.43;14;0;0
2019-06-24 00:53:31;16.87;1017.39;14;0;0
2019-06-24 00:54:01;16.77;1017.34;14;0;0
2019-06-24 00:54:31;16.82;1017.36;14;0;0
2019-06-24 00:55:01;16.79;1017.34;13;0;0
2019-06-24 00:55:31;16.73;1017.33;13;0;0
2019-06-24 00:56:01;16.8;1017.35;13;0;0
2019-06-24 00:56:31;16.84;1017.41;13;0;0
2019-06-24 00:57:01;17.03;1017.4;13;0;0
2019-06-24 00:57:31;16.86;1017.45;14;0;0
2019-06-24 00:58:01;16.85;1017.37;14;0;0
2019-06-24 00:58:31;16.82;1017.35;13;0;0
2019-06-24 00:59:02;16.65;1017.41;13;0;0
2019-06-24 00:59:32;16.86;1017.47;13;0;0
2019-06-24 01:00:01;16.81;1017.44;13;0;0
2019-06-24 01:00:31;16.72;1017.46;13;0;0
2019-06-24 01:01:01;16.64;1017.51;13;0;0
2019-06-24 01:01:31;16.69;1017.49;13;0;0
2019-06-24 01:02:01;16.63;1017.51;13;0;0
2019-06-24 01:02:31;16.76;1017.48;13;0;0
2019-06-24 01:03:01;16.74;1017.49;13;0;0
2019-06-24 01:03:31;16.77;1017.52;14;0;0
2019-06-24 01:04:01;16.68;1017.55;14;0;0
2019-06-24 01:04:31;16.72;1017.58;13;0;0
2019-06-24 01:05:01;16.55;1017.59;13;0;0
2019-06-24 01:05:31;16.55;1017.59;13;0;0
2019-06-24 01:06:01;16.66;1017.6;13;0;0
2019-06-24 01:06:31;16.76;1017.61;13;0;0
2019-06-24 01:07:01;16.84;1017.61;13;0;0
2019-06-24 01:07:31;16.79;1017.62;13;0;0
2019-06-24 01:08:01;16.68;1017.6;13;0;0
2019-06-24 01:08:31;16.66;1017.59;13;0;0
2019-06-24 01:09:01;16.67;1017.58;13;0;0
2019-06-24 01:09:32;16.57;1017.6;13;0;0
2019-06-24 01:10:01;16.73;1017.6;13;0;0
2019-06-24 01:10:31;16.64;1017.61;14;0;0
2019-06-24 01:11:01;16.7;1017.62;13;0;0
2019-06-24 01:11:31;16.59;1017.62;13;0;0
2019-06-24 01:12:01;16.65;1017.62;14;0;0
2019-06-24 01:12:31;16.5;1017.62;13;0;0
2019-06-24 01:13:01;16.47;1017.62;13;0;0
2019-06-24 01:13:31;16.61;1017.62;14;0;0
2019-06-24 01:14:01;16.4;1017.63;13;0;0
2019-06-24 01:14:31;16.29;1017.62;13;0;0
2019-06-24 01:15:01;16.33;1017.61;13;0;0
2019-06-24 01:15:31;16.43;1017.6;14;0;0
2019-06-24 01:16:02;16.44;1017.61;13;0;0
2019-06-24 01:16:31;16.54;1017.62;12;0;0
2019-06-24 01:17:01;16.44;1017.62;13;0;0
2019-06-24 01:17:31;16.58;1017.61;13;0;0
2019-06-24 01:18:01;16.56;1017.62;13;0;0
2019-06-24 01:18:31;16.56;1017.62;14;0;0
2019-06-24 01:19:01;16.34;1017.62;14;0;0
2019-06-24 01:19:31;16.4;1017.6;13;0;0
2019-06-24 01:20:01;16.47;1017.61;13;0;0
2019-06-24 01:20:32;16.38;1017.62;13;0;0
2019-06-24 01:21:01;16.27;1017.62;13;0;0
2019-06-24 01:21:31;16.31;1017.61;14;0;0
2019-06-24 01:22:01;16.32;1017.58;13;0;0
2019-06-24 01:22:31;16.43;1017.6;14;0;0
2019-06-24 01:23:01;16.39;1017.61;14;0;0
2019-06-24 01:23:31;16.49;1017.6;14;0;0
2019-06-24 01:24:01;16.5;1017.61;13;0;0
2019-06-24 01:24:31;16.27;1017.62;13;0;0
2019-06-24 01:25:01;16.37;1017.62;13;0;0
2019-06-24 01:25:31;16.34;1017.62;13;0;0
2019-06-24 01:26:01;16.41;1017.63;12;0;0
2019-06-24 01:26:31;16.47;1017.63;13;0;0
2019-06-24 01:27:01;16.49;1017.63;12;0;0
2019-06-24 01:27:31;16.25;1017.61;13;0;0
2019-06-24 01:28:01;16.2;1017.62;13;0;0
2019-06-24 01:28:31;16.35;1017.62;13;0;0
2019-06-24 01:29:01;16.28;1017.61;12;0;0
2019-06-24 01:29:31;16.09;1017.6;12;0;0
2019-06-24 01:30:01;16.23;1017.6;13;0;0
2019-06-24 01:30:32;16.31;1017.61;13;0;0
2019-06-24 01:31:01;16.21;1017.62;14;0;0
2019-06-24 01:31:31;16.09;1017.62;13;0;0
2019-06-24 01:32:01;16.07;1017.6;12;0;0
2019-06-24 01:32:31;16.14;1017.61;13;0;0
2019-06-24 01:33:01;16.12;1017.62;13;0;0
2019-06-24 01:33:31;15.98;1017.62;12;0;0
2019-06-24 01:34:01;15.98;1017.63;12;0;0
2019-06-24 01:34:31;16.3;1017.63;12;0;0
2019-06-24 01:35:01;16.11;1017.63;13;0;0
2019-06-24 01:35:31;16.08;1017.63;13;0;0
2019-06-24 01:36:01;16.07;1017.63;13;0;0
2019-06-24 01:36:31;16.2;1017.63;13;0;0
2019-06-24 01:37:02;16.2;1017.63;13;0;0
2019-06-24 01:37:31;16.06;1017.63;13;0;0
2019-06-24 01:38:01;16.11;1017.63;12;0;0
2019-06-24 01:38:31;16.25;1017.63;12;0;0
2019-06-24 01:39:01;16.2;1017.63;12;0;0
2019-06-24 01:39:31;16.06;1017.63;12;0;0
2019-06-24 01:40:01;16.1;1017.63;12;0;0
2019-06-24 01:40:32;15.98;1017.63;12;0;0
2019-06-24 01:41:01;15.97;1017.63;12;0;0
2019-06-24 01:41:31;16.02;1017.63;12;0;0
2019-06-24 01:42:01;15.99;1017.63;12;0;0
2019-06-24 01:42:31;15.96;1017.63;12;0;0
2019-06-24 01:43:01;16.07;1017.61;13;0;0
2019-06-24 01:43:31;16;1017.62;13;0;0
2019-06-24 01:44:01;15.98;1017.62;12;0;0
2019-06-24 01:44:31;16.04;1017.62;12;0;0
2019-06-24 01:45:01;15.95;1017.63;12;0;0
2019-06-24 01:45:31;15.92;1017.63;12;0;0
2019-06-24 01:46:01;15.95;1017.63;12;0;0
2019-06-24 01:46:31;15.83;1017.62;12;0;0
2019-06-24 01:47:01;15.92;1017.62;12;0;0
2019-06-24 01:47:31;15.95;1017.61;13;0;0
2019-06-24 01:48:01;15.95;1017.62;13;0;0
2019-06-24 01:48:31;15.86;1017.62;12;0;0
2019-06-24 01:49:01;15.74;1017.62;12;0;0
2019-06-24 01:49:31;15.7;1017.62;12;0;0
2019-06-24 01:50:01;15.85;1017.62;12;0;0
2019-06-24 01:50:31;15.88;1017.62;12;0;0
2019-06-24 01:51:02;15.76;1017.62;12;0;0
2019-06-24 01:51:32;15.8;1017.63;12;0;0
2019-06-24 01:52:01;15.99;1017.63;12;0;0
2019-06-24 01:52:31;15.92;1017.63;12;0;0
2019-06-24 01:53:01;16.01;1017.63;12;0;0
2019-06-24 01:53:31;15.94;1017.63;12;0;0
2019-06-24 01:54:01;15.92;1017.63;12;0;0
2019-06-24 01:54:31;15.84;1017.63;12;0;0
2019-06-24 01:55:01;15.96;1017.63;12;0;0
2019-06-24 01:55:31;15.88;1017.63;13;0;0
2019-06-24 01:56:01;16.04;1017.63;13;0;0
2019-06-24 01:56:31;15.89;1017.63;13;0;0
2019-06-24 01:57:01;15.82;1017.63;12;0;0
2019-06-24 01:57:31;15.76;1017.63;12;0;0
2019-06-24 01:58:01;15.81;1017.63;12;0;0
2019-06-24 01:58:31;15.88;1017.63;12;0;0
2019-06-24 01:59:01;15.93;1017.63;12;0;0
2019-06-24 01:59:31;15.91;1017.63;11;0;0
2019-06-24 02:00:01;15.82;1017.63;11;0;0
2019-06-24 02:00:31;15.77;1017.63;12;0;0
2019-06-24 02:01:01;15.81;1017.63;12;0;0
2019-06-24 02:01:32;15.77;1017.63;11;0;0
2019-06-24 02:02:01;15.77;1017.63;13;0;0
2019-06-24 02:02:31;15.81;1017.63;13;0;0
2019-06-24 02:03:01;15.83;1017.63;13;0;0
2019-06-24 02:03:31;15.9;1017.63;12;0;0
2019-06-24 02:04:01;15.91;1017.63;11;0;0
2019-06-24 02:04:31;15.7;1017.63;11;0;0
2019-06-24 02:05:01;15.91;1017.63;12;0;0
2019-06-24 02:05:31;15.77;1017.63;12;0;0
2019-06-24 02:06:01;15.68;1017.63;13;0;0
2019-06-24 02:06:31;15.71;1017.63;12;0;0
2019-06-24 02:07:01;15.69;1017.63;12;0;0
2019-06-24 02:07:31;15.66;1017.63;12;0;0
2019-06-24 02:08:01;15.75;1017.63;12;0;0
2019-06-24 02:08:31;15.8;1017.61;12;0;0
2019-06-24 02:09:01;15.6;1017.62;12;0;0
2019-06-24 02:09:31;15.63;1017.62;11;0;0
2019-06-24 02:10:01;15.69;1017.63;12;0;0
2019-06-24 02:10:31;15.63;1017.63;11;0;0
2019-06-24 02:11:01;15.59;1017.63;12;0;0
2019-06-24 02:11:32;15.69;1017.63;12;0;0
2019-06-24 02:12:01;15.55;1017.63;11;0;0
2019-06-24 02:12:31;15.7;1017.63;12;0;0
2019-06-24 02:13:01;15.6;1017.63;12;0;0
2019-06-24 02:13:31;15.69;1017.63;12;0;0
2019-06-24 02:14:01;15.64;1017.63;11;0;0
2019-06-24 02:14:31;15.53;1017.63;11;0;0
2019-06-24 02:15:01;15.5;1017.63;11;0;0
2019-06-24 02:15:31;15.42;1017.64;11;0;0
2019-06-24 02:16:01;15.47;1017.63;11;0;0
2019-06-24 02:16:31;15.59;1017.63;10;0;0
2019-06-24 02:17:01;15.55;1017.63;11;0;0
2019-06-24 02:17:31;15.63;1017.63;11;0;0
2019-06-24 02:18:01;15.7;1017.63;12;0;0
2019-06-24 02:18:31;15.66;1017.63;11;0;0
2019-06-24 02:19:02;15.56;1017.63;12;0;0
2019-06-24 02:19:31;15.62;1017.63;12;0;0
2019-06-24 02:20:01;15.46;1017.63;12;0;0
2019-06-24 02:20:31;15.54;1017.63;11;0;0
2019-06-24 02:21:01;15.56;1017.64;11;0;0
2019-06-24 02:21:31;15.46;1017.64;11;0;0
2019-06-24 02:22:01;15.51;1017.63;12;0;0
2019-06-24 02:22:32;15.41;1017.63;12;0;0
2019-06-24 02:23:01;15.55;1017.63;11;0;0
2019-06-24 02:23:31;15.54;1017.64;12;0;0
2019-06-24 02:24:01;15.5;1017.65;11;0;0
2019-06-24 02:24:31;15.33;1017.64;11;0;0
2019-06-24 02:25:01;15.53;1017.64;11;0;0
2019-06-24 02:25:31;15.72;1017.63;11;0;0
2019-06-24 02:26:01;15.56;1017.63;12;0;0
2019-06-24 02:26:31;15.51;1017.63;12;0;0
2019-06-24 02:27:01;15.5;1017.63;11;0;0
2019-06-24 02:27:31;15.54;1017.63;11;0;0
2019-06-24 02:28:01;15.58;1017.63;11;0;0
2019-06-24 02:28:31;15.57;1017.64;11;0;0
2019-06-24 02:29:01;15.57;1017.64;12;0;0
2019-06-24 02:29:31;15.59;1017.63;11;0;0
2019-06-24 02:30:01;15.63;1017.63;11;0;0
2019-06-24 02:30:31;15.47;1017.63;11;0;0
2019-06-24 02:31:01;15.57;1017.63;11;0;0
2019-06-24 02:31:31;15.62;1017.64;12;0;0
2019-06-24 02:32:01;15.8;1017.65;12;0;0
2019-06-24 02:32:32;15.76;1017.64;12;0;0
2019-06-24 02:33:01;15.64;1017.64;11;0;0
2019-06-24 02:33:31;15.67;1017.64;10;0;0
2019-06-24 02:34:01;15.66;1017.64;11;0;0
2019-06-24 02:34:31;15.6;1017.65;11;0;0
2019-06-24 02:35:01;15.56;1017.64;11;0;0
2019-06-24 02:35:31;15.53;1017.64;11;0;0
2019-06-24 02:36:01;15.61;1017.63;11;0;0
2019-06-24 02:36:31;15.65;1017.63;11;0;0
2019-06-24 02:37:01;15.48;1017.63;10;0;0
2019-06-24 02:37:31;15.48;1017.65;11;0;0
2019-06-24 02:38:01;15.7;1017.67;12;0;0
2019-06-24 02:38:31;15.75;1017.7;11;0;0
2019-06-24 02:39:01;15.69;1017.67;11;0;0
2019-06-24 02:39:31;15.75;1017.68;11;0;0
2019-06-24 02:40:02;15.63;1017.67;12;0;0
2019-06-24 02:40:31;15.64;1017.67;11;0;0
2019-06-24 02:41:01;15.69;1017.67;12;0;0
2019-06-24 02:41:31;15.65;1017.68;12;0;0
2019-06-24 02:42:01;15.67;1017.66;12;0;0
2019-06-24 02:42:31;15.73;1017.66;11;0;0
2019-06-24 02:43:01;15.82;1017.7;12;0;0
2019-06-24 02:43:32;15.83;1017.7;11;0;0
2019-06-24 02:44:01;15.76;1017.72;11;0;0
2019-06-24 02:44:31;15.77;1017.7;11;0;0
2019-06-24 02:45:01;15.74;1017.69;10;0;0
2019-06-24 02:45:31;15.53;1017.68;10;0;0
2019-06-24 02:46:01;15.54;1017.7;10;0;0
2019-06-24 02:46:31;15.62;1017.74;10;0;0
2019-06-24 02:47:01;15.77;1017.7;11;0;0
2019-06-24 02:47:31;15.82;1017.67;11;0;0
2019-06-24 02:48:01;15.84;1017.72;10;0;0
2019-06-24 02:48:31;15.86;1017.73;11;0;0
2019-06-24 02:49:01;15.8;1017.75;11;0;0
2019-06-24 02:49:31;15.82;1017.76;11;0;0
2019-06-24 02:50:01;15.74;1017.78;11;0;0
2019-06-24 02:50:31;15.7;1017.8;11;0;0
2019-06-24 02:51:02;15.69;1017.81;11;0;0
2019-06-24 02:51:31;15.67;1017.81;12;0;0
2019-06-24 02:52:01;15.72;1017.84;11;0;0
2019-06-24 02:52:31;15.65;1017.85;12;0;0
2019-06-24 02:53:01;15.69;1017.85;11;0;0
2019-06-24 02:53:32;15.88;1017.84;11;0;0
2019-06-24 02:54:01;15.91;1017.89;10;0;0
2019-06-24 02:54:31;15.79;1017.87;10;0;0
2019-06-24 02:55:01;15.77;1017.81;11;0;0
2019-06-24 02:55:31;15.9;1017.86;11;0;0
2019-06-24 02:56:01;15.79;1017.79;11;0;0
2019-06-24 02:56:31;15.71;1017.87;12;0;0
2019-06-24 02:57:01;15.7;1017.91;11;0;0
2019-06-24 02:57:31;15.82;1017.85;11;0;0
2019-06-24 02:58:01;15.79;1017.86;11;0;0
2019-06-24 02:58:31;15.76;1017.89;11;0;0
2019-06-24 02:59:01;15.77;1017.94;11;0;0
2019-06-24 02:59:31;15.75;1018.02;10;0;0
2019-06-24 03:00:01;15.71;1017.98;11;0;0
2019-06-24 03:00:31;15.78;1017.93;11;0;0
2019-06-24 03:01:01;15.74;1017.93;11;0;0
2019-06-24 03:01:31;15.69;1017.92;10;0;0
2019-06-24 03:02:02;15.84;1017.96;10;0;0
2019-06-24 03:02:31;15.81;1017.96;10;0;0
2019-06-24 03:03:01;15.73;1017.98;11;0;0
2019-06-24 03:03:31;15.67;1017.92;12;0;0
2019-06-24 03:04:01;15.63;1017.92;11;0;0
2019-06-24 03:04:31;15.72;1017.95;12;0;0
2019-06-24 03:05:01;15.78;1017.93;12;0;0
2019-06-24 03:05:31;15.78;1017.96;11;0;0
2019-06-24 03:06:01;15.69;1017.92;12;0;0
2019-06-24 03:06:31;15.69;1017.98;11;0;0
2019-06-24 03:07:01;15.61;1018.01;12;0;0
2019-06-24 03:07:32;15.71;1018.01;12;0;0
2019-06-24 03:08:01;15.55;1018.05;11;0;0
2019-06-24 03:08:32;15.64;1018.09;10;0;0
2019-06-24 03:09:01;15.54;1018.03;10;0;0
2019-06-24 03:09:31;15.54;1018.05;11;0;0
2019-06-24 03:10:02;15.61;1018.1;11;0;0
2019-06-24 03:10:31;15.49;1018.15;11;0;0
2019-06-24 03:11:01;15.35;1018.14;10;0;0
2019-06-24 03:11:31;15.47;1018.18;11;0;0
2019-06-24 03:12:01;15.45;1018.18;10;0;0
2019-06-24 03:12:31;15.44;1018.15;11;0;0
2019-06-24 03:13:01;15.54;1018.24;11;0;0
2019-06-24 03:13:31;15.56;1018.28;11;0;0
2019-06-24 03:14:01;15.55;1018.31;11;0;0
2019-06-24 03:14:31;15.56;1018.35;11;0;0
2019-06-24 03:15:01;15.56;1018.28;10;0;0
2019-06-24 03:15:31;15.66;1018.31;10;0;0
2019-06-24 03:16:01;15.69;1018.33;10;0;0
2019-06-24 03:16:31;15.59;1018.35;10;0;0
2019-06-24 03:17:02;15.57;1018.43;11;0;0
2019-06-24 03:17:31;15.54;1018.39;11;0;0
2019-06-24 03:18:01;15.4;1018.39;9;0;0
2019-06-24 03:18:32;15.47;1018.4;10;0;0
2019-06-24 03:19:01;15.52;1018.41;11;0;0
2019-06-24 03:19:31;15.51;1018.46;11;0;0
2019-06-24 03:20:01;15.56;1018.41;10;0;0
2019-06-24 03:20:31;15.44;1018.41;11;0;0
2019-06-24 03:21:01;15.53;1018.42;11;0;0
2019-06-24 03:21:31;15.51;1018.41;12;0;0
2019-06-24 03:22:01;15.4;1018.39;10;0;0
2019-06-24 03:22:32;15.33;1018.45;10;0;0
2019-06-24 03:23:01;15.26;1018.45;10;0;0
2019-06-24 03:23:31;15.35;1018.5;10;0;0
2019-06-24 03:24:01;15.23;1018.46;10;0;0
2019-06-24 03:24:31;15.15;1018.45;10;0;0
2019-06-24 03:25:01;15.32;1018.47;10;0;0
2019-06-24 03:25:31;15.43;1018.46;11;0;0
2019-06-24 03:26:01;15.31;1018.45;10;0;0
2019-06-24 03:26:31;15.17;1018.48;11;0;0
2019-06-24 03:27:01;15.23;1018.47;10;0;0
2019-06-24 03:27:32;15.19;1018.45;11;0;0
2019-06-24 03:28:01;15.16;1018.5;11;0;0
2019-06-24 03:28:32;15.14;1018.51;10;0;0
2019-06-24 03:29:01;15.06;1018.48;10;0;0
2019-06-24 03:29:31;15.17;1018.48;10;0;0
2019-06-24 03:30:01;15.03;1018.49;9;0;0
2019-06-24 03:30:31;15;1018.51;10;0;0
2019-06-24 03:31:01;14.92;1018.49;10;0;0
2019-06-24 03:31:31;14.81;1018.51;10;0;0
2019-06-24 03:32:01;15.04;1018.55;10;0;0
2019-06-24 03:32:31;15.2;1018.56;11;0;0
2019-06-24 03:33:01;15.01;1018.56;10;0;0
2019-06-24 03:33:31;14.88;1018.58;10;0;0
2019-06-24 03:34:01;14.99;1018.59;10;0;0
2019-06-24 03:34:31;14.72;1018.6;10;0;0
2019-06-24 03:35:01;14.77;1018.6;10;0;0
2019-06-24 03:35:31;14.84;1018.59;10;0;0
2019-06-24 03:36:02;14.9;1018.6;11;0;0
2019-06-24 03:36:31;14.88;1018.59;11;0;0
2019-06-24 03:37:01;14.8;1018.6;11;0;0
2019-06-24 03:37:32;14.8;1018.6;10;0;0
2019-06-24 03:38:01;14.96;1018.6;10;0;0
2019-06-24 03:38:31;14.87;1018.59;10;0;0
2019-06-24 03:39:01;14.91;1018.6;10;0;0
2019-06-24 03:39:31;14.87;1018.6;10;0;0
2019-06-24 03:40:01;14.83;1018.59;10;0;0
2019-06-24 03:40:31;14.69;1018.6;10;0;0
2019-06-24 03:41:01;14.62;1018.6;9;0;0
2019-06-24 03:41:31;14.66;1018.6;9;0;0
2019-06-24 03:42:01;14.67;1018.58;10;0;0
2019-06-24 03:42:31;14.69;1018.59;10;0;0
2019-06-24 03:43:01;14.69;1018.59;10;0;0
2019-06-24 03:43:31;14.7;1018.59;10;0;0
2019-06-24 03:44:01;14.63;1018.59;11;0;0
2019-06-24 03:44:31;14.59;1018.6;10;0;0
2019-06-24 03:45:01;14.57;1018.6;9;0;0
2019-06-24 03:45:31;14.75;1018.6;9;0;0
2019-06-24 03:46:01;14.51;1018.6;9;0;0
2019-06-24 03:46:31;14.39;1018.59;10;0;0
2019-06-24 03:47:01;14.4;1018.6;11;0;0
2019-06-24 03:47:31;14.52;1018.6;10;0;0
2019-06-24 03:48:01;14.46;1018.6;10;0;0
2019-06-24 03:48:31;14.41;1018.6;10;0;0
2019-06-24 03:49:01;14.48;1018.6;10;0;0
2019-06-24 03:49:31;14.39;1018.6;11;0;0
2019-06-24 03:50:01;14.42;1018.6;11;0;0
2019-06-24 03:50:31;14.45;1018.6;10;0;0
2019-06-24 03:51:01;14.35;1018.6;10;0;0
2019-06-24 03:51:31;14.35;1018.6;10;0;0
2019-06-24 03:52:01;14.34;1018.6;10;0;0
2019-06-24 03:52:31;14.39;1018.6;10;0;0
2019-06-24 03:53:01;14.39;1018.6;11;0;0
2019-06-24 03:53:31;14.34;1018.6;11;0;0
2019-06-24 03:54:01;14.29;1018.6;11;0;0
2019-06-24 03:54:31;14.22;1018.6;11;0;0
2019-06-24 03:55:01;14.22;1018.6;11;0;0
2019-06-24 03:55:31;14.2;1018.6;10;0;0
2019-06-24 03:56:01;14.34;1018.6;11;0;0
2019-06-24 03:56:31;14.26;1018.6;12;0;0
2019-06-24 03:57:01;14.19;1018.59;11;0;0
2019-06-24 03:57:31;14.36;1018.6;11;0;0
2019-06-24 03:58:01;14.34;1018.6;11;0;0
2019-06-24 03:58:32;14.34;1018.6;10;0;0
2019-06-24 03:59:01;14.25;1018.6;11;0;0
2019-06-24 03:59:31;14.3;1018.6;12;0;0
2019-06-24 04:00:02;14.3;1018.59;11;0;0
2019-06-24 04:00:31;14.36;1018.6;11;0;0
2019-06-24 04:01:01;14.36;1018.6;12;0;0
2019-06-24 04:01:31;14.38;1018.6;12;0;0
2019-06-24 04:02:01;14.27;1018.6;12;0;0
2019-06-24 04:02:31;14.29;1018.6;11;0;0
2019-06-24 04:03:01;14.16;1018.6;12;0;0
2019-06-24 04:03:31;14.28;1018.6;12;0;0
2019-06-24 04:04:01;14.17;1018.6;12;0;0
2019-06-24 04:04:31;14.07;1018.6;13;0;0
2019-06-24 04:05:01;14.15;1018.6;13;0;0
2019-06-24 04:05:31;14.08;1018.6;13;0;0
2019-06-24 04:06:01;14.02;1018.6;13;0;0
2019-06-24 04:06:31;14.1;1018.6;13;0;0
2019-06-24 04:07:01;14.06;1018.6;13;0;0
2019-06-24 04:07:31;14.09;1018.6;14;0;0
2019-06-24 04:08:01;14.22;1018.6;13;0;0
2019-06-24 04:08:32;14.2;1018.6;14;0;0
2019-06-24 04:09:01;14.29;1018.6;15;0;0
2019-06-24 04:09:31;14.28;1018.6;15;0;0
2019-06-24 04:10:02;14.21;1018.6;14;0;0
2019-06-24 04:10:31;14.07;1018.6;14;0;0
2019-06-24 04:11:01;14.24;1018.6;15;0;0
2019-06-24 04:11:31;14.26;1018.6;15;0;0
2019-06-24 04:12:01;14.24;1018.6;16;0;0
2019-06-24 04:12:31;14.22;1018.6;15;0;0
2019-06-24 04:13:01;14.14;1018.59;16;0;0
2019-06-24 04:13:31;14.16;1018.6;16;0;0
2019-06-24 04:14:01;14.18;1018.61;17;0;0
2019-06-24 04:14:31;14.18;1018.61;17;0;0
2019-06-24 04:15:01;13.97;1018.61;18;0;0
2019-06-24 04:15:31;14.06;1018.61;18;0;0
2019-06-24 04:16:02;14.17;1018.61;18;0;0
2019-06-24 04:16:31;14.01;1018.61;19;0;0
2019-06-24 04:17:01;13.97;1018.61;20;0;0
2019-06-24 04:17:31;14.05;1018.61;21;0;0
2019-06-24 04:18:01;13.97;1018.61;23;0;0
2019-06-24 04:18:32;13.86;1018.61;23;0;0
2019-06-24 04:19:01;13.81;1018.61;24;0;0
2019-06-24 04:19:31;13.98;1018.61;24;0;0
2019-06-24 04:20:01;13.81;1018.61;24;0;0
2019-06-24 04:20:31;13.98;1018.61;25;0;0
2019-06-24 04:21:01;13.98;1018.61;28;0;0
2019-06-24 04:21:31;13.9;1018.61;29;0;0
2019-06-24 04:22:01;13.93;1018.61;31;0;0
2019-06-24 04:22:31;13.84;1018.61;32;0;0
2019-06-24 04:23:02;13.97;1018.61;34;0;0
2019-06-24 04:23:31;13.92;1018.61;36;0;0
2019-06-24 04:24:01;14.02;1018.61;37;0;0
2019-06-24 04:24:31;14.13;1018.61;40;0;0
2019-06-24 04:25:01;13.97;1018.61;43;0;0
2019-06-24 04:25:31;14.02;1018.61;46;0;0
2019-06-24 04:26:01;13.96;1018.61;49;0;0
2019-06-24 04:26:31;13.92;1018.61;53;0;0
2019-06-24 04:27:01;13.94;1018.62;57;0;0
2019-06-24 04:27:31;13.88;1018.63;60;0;0
2019-06-24 04:28:01;13.82;1018.62;64;0;0
2019-06-24 04:28:31;13.82;1018.61;68;0;0
2019-06-24 04:29:01;13.84;1018.61;72;0;0
2019-06-24 04:29:32;13.64;1018.61;77;0;0
2019-06-24 04:30:01;13.87;1018.61;83;0;0
2019-06-24 04:30:31;13.84;1018.61;88;0;0
2019-06-24 04:31:01;13.71;1018.61;93;0;0
2019-06-24 04:31:31;13.83;1018.61;98;0;0
2019-06-24 04:32:01;13.68;1018.61;103;0;0
2019-06-24 04:32:31;13.8;1018.61;109;0;0
2019-06-24 04:33:01;13.74;1018.62;113;0;0
2019-06-24 04:33:31;13.81;1018.62;120;0;0
2019-06-24 04:34:01;13.78;1018.64;124;0;0
2019-06-24 04:34:31;13.96;1018.63;130;0;0
2019-06-24 04:35:01;13.91;1018.65;135;0;0
2019-06-24 04:35:31;13.9;1018.64;140;0;0
2019-06-24 04:36:01;13.99;1018.64;146;0;0
2019-06-24 04:36:31;13.89;1018.64;151;0;0
2019-06-24 04:37:01;14.19;1018.64;157;0;0
2019-06-24 04:37:31;14.3;1018.63;162;0;0
2019-06-24 04:38:02;14.05;1018.63;167;0;0
2019-06-24 04:38:31;13.87;1018.67;172;0;0
2019-06-24 04:39:01;14.11;1018.66;177;0;0
2019-06-24 04:39:32;13.97;1018.67;183;0;0
2019-06-24 04:40:01;14;1018.67;188;0;0
2019-06-24 04:40:31;14.02;1018.7;194;0;0
2019-06-24 04:41:01;14.01;1018.77;200;0;0
2019-06-24 04:41:31;14.04;1018.75;206;0;0
2019-06-24 04:42:01;14.03;1018.71;211;0;0
2019-06-24 04:42:31;14.05;1018.67;217;0;0
2019-06-24 04:43:01;14.27;1018.71;223;0;0
2019-06-24 04:43:31;14.02;1018.72;229;0;0
2019-06-24 04:44:01;14.06;1018.74;235;0;0
2019-06-24 04:44:31;13.96;1018.73;242;0;0
2019-06-24 04:45:01;13.89;1018.72;249;0;0
2019-06-24 04:45:31;13.93;1018.74;255;0;0
2019-06-24 04:46:01;14.04;1018.76;262;0;0
2019-06-24 04:46:31;14.03;1018.76;269;0;0
2019-06-24 04:47:01;13.91;1018.74;276;0;0
2019-06-24 04:47:31;13.82;1018.76;282;0;0
2019-06-24 04:48:01;13.95;1018.83;289;0;0
2019-06-24 04:48:31;13.98;1018.83;297;0;0
2019-06-24 04:49:01;14.06;1018.83;304;0;0
2019-06-24 04:49:31;13.9;1018.92;312;0;0
2019-06-24 04:50:01;13.85;1018.91;319;0;0
2019-06-24 04:50:32;13.82;1018.94;327;0;0
2019-06-24 04:51:01;13.95;1018.92;336;0;0
2019-06-24 04:51:31;13.82;1018.9;344;0;0
2019-06-24 04:52:02;14.03;1018.94;352;0;0
2019-06-24 04:52:31;13.96;1018.95;360;0;0